Location: Anna District 4 Election Precinct
(37.4833°N, 89.2195°W)
Time: 14:47:57
(UTC+00:00)

Cosmos 2227 Rocket - Pass Details

Date: 29 October 2020
Orbit: 838 x 846 km, 71.0° (Epoch: 04 December)

Event Time Altitude Azimuth Distance (km) Brightness Sun altitude
Rises 23:40:53 0° 343° (NNW) 3,404 5.4 -8.4°
Reaches altitude 10° 23:43:26 10° 349° (N) 2,467 4.6 -8.9°
Maximum altitude 23:48:53 48° 63° (ENE) 1,097 2.4 -10.0°
Drops below altitude 10° 23:54:19 10° 138° (SE) 2,457 4.3 -11.1°
Sets 23:56:51 0° 144° (SE) 3,389 5.1 -11.6°
